Find Starlink 4522

NORAD ID: 53388 Int'l Des: 2022-097 Owner: SPXS Country: US Constellation: starlink operational
LEOCIRCULAR

現在のビュー

3D地球を読み込み中...

About Starlink 4522

Starlink 4522 (NORAD 53388) is a starlink constellation satellite (v1.5) launched Aug 10, 2022 by SPXS of US. It operates in LEO, CIRCULAR orbit with a mass of 297.00 kg.

Starlink 4522について

説明を読み込み中...

次回通過

Passes for default location (London). Set your location on the main map for personalized predictions.

高度履歴

Loading altitude history...

軌道要素

1 53388U 22097A 26166.36129322 -.00000393 00000-0 -65885-5 0 9990
2 53388 53.1590 45.5718 0001295 91.6749 268.4391 15.08830140213598
Epoch: Jun 15, 2026 • Age: 10 hours

現在のステータス

高度 540.4 km
速度 7.59 km/s
衛星直下点 2.01°N, 132.07°W
打ち上げ日 Aug 10, 2022
運用期間 3.8 years
タイプ internet

技術仕様

分類 Payload
質量 297.00 kg
乾燥質量 275.00 kg
総質量 297.00 kg
長さ 0.20 m
直径 2.80 m
スパン 9.00 m
形状 Box + pan
製造者 SPXS
バスタイプ Starlink
フェーズステータス In Orbit
所有者/国 SPXS/US

Most Searched